When you browse on this site, cookies collect data to enhance your experience and personalize the content and advertising you see.
Visit our Privacy Policy to learn more. By continuing to use the site, you agree to this use of cookies and data.
  • In Hungary
  • List of Countries
  • For 7 days
  • Water Temperature
  • Satellite Maps
  • Weather Map
  • News
  • Weather Widgets
  • user-avatar
    Login

    Hourly Weather Divo

    Today, 20 February, Wednesday

    Time Temperature Precipitation Wind Pressure Humidity
    00:00 +25°C° 0 mm 0 mps 745 mmHg 90%
    01:00 +25°C° 0.2 mm 0 mps 744 mmHg 91%
    02:00 +26°C° 0.2 mm 1 mps 744 mmHg 92%
    03:00 +26°C° 0.2 mm 1 mps 743 mmHg 93%
    04:00 +26°C° 0 mm 1 mps 743 mmHg 92%
    05:00 +26°C° 0 mm 1 mps 743 mmHg 91%
    06:00 +26°C° 0 mm 1 mps 743 mmHg 89%
    07:00 +27°C° 0 mm 1 mps 744 mmHg 86%
    08:00 +27°C° 0 mm 1 mps 744 mmHg 83%
    09:00 +28°C° 0 mm 2 mps 744 mmHg 79%
    10:00 +30°C° 0 mm 2 mps 744 mmHg 68%
    11:00 +34°C° 0 mm 2 mps 744 mmHg 57%
    12:00 +37°C° 0 mm 2 mps 744 mmHg 46%
    13:00 +35°C° 0 mm 1 mps 744 mmHg 46%
    14:00 +35°C° 0 mm 1 mps 743 mmHg 46%
    15:00 +35°C° 0 mm 1 mps 743 mmHg 47%
    16:00 +34°C° 0.1 mm 1 mps 743 mmHg 52%
    17:00 +33°C° 0.1 mm 1 mps 743 mmHg 58%
    18:00 +31°C° 0.1 mm 2 mps 743 mmHg 63%
    19:00 +30°C° 0.1 mm 2 mps 744 mmHg 69%
    20:00 +29°C° 0.1 mm 1 mps 744 mmHg 76%
    21:00 +28°C° 0.1 mm 1 mps 745 mmHg 82%
    22:00 +27°C° 0 mm 1 mps 745 mmHg 83%
    23:00 +27°C° 0 mm 1 mps 745 mmHg 84%

    Tomorrow, 21 February, Thursday

    Time Temperature Precipitation Wind Pressure Humidity
    00:00 +27°C° 0 mm 1 mps 745 mmHg 85%
    01:00 +27°C° 0.4 mm 1 mps 745 mmHg 87%
    02:00 +26°C° 0.4 mm 1 mps 745 mmHg 89%
    03:00 +26°C° 0.4 mm 1 mps 744 mmHg 91%
    04:00 +25°C° 0.5 mm 1 mps 745 mmHg 91%
    05:00 +25°C° 0.5 mm 1 mps 745 mmHg 91%
    06:00 +25°C° 0.5 mm 1 mps 745 mmHg 92%
    07:00 +26°C° 0 mm 1 mps 745 mmHg 85%
    08:00 +28°C° 0 mm 1 mps 746 mmHg 79%
    09:00 +29°C° 0 mm 1 mps 746 mmHg 72%
    10:00 +32°C° 0 mm 1 mps 746 mmHg 62%
    11:00 +34°C° 0 mm 1 mps 746 mmHg 52%
    12:00 +37°C° 0 mm 1 mps 746 mmHg 42%
    13:00 +37°C° 0 mm 1 mps 745 mmHg 41%
    14:00 +37°C° 0 mm 1 mps 744 mmHg 41%
    15:00 +39°C° 0 mm 1 mps 743 mmHg 40%
    16:00 +36°C° 0 mm 1 mps 743 mmHg 47%
    17:00 +35°C° 0 mm 2 mps 743 mmHg 54%
    18:00 +34°C° 0 mm 2 mps 743 mmHg 61%
    19:00 +31°C° 0 mm 2 mps 744 mmHg 67%
    20:00 +30°C° 0 mm 2 mps 745 mmHg 73%
    21:00 +28°C° 0 mm 2 mps 745 mmHg 79%
    22:00 +28°C° 0 mm 2 mps 746 mmHg 82%
    23:00 +28°C° 0 mm 2 mps 746 mmHg 85%

    Day after tomorrow, 22 February, Friday

    Time Temperature Precipitation Wind Pressure Humidity
    00:00 +27°C° 0 mm 2 mps 746 mmHg 88%
    01:00 +27°C° 0 mm 1 mps 746 mmHg 89%
    02:00 +27°C° 0 mm 1 mps 745 mmHg 90%
    03:00 +26°C° 0 mm 1 mps 745 mmHg 91%
    04:00 +26°C° 0 mm 1 mps 745 mmHg 92%
    05:00 +26°C° 0 mm 1 mps 745 mmHg 93%
    06:00 +26°C° 0 mm 1 mps 745 mmHg 94%
    07:00 +27°C° 0 mm 1 mps 745 mmHg 88%
    08:00 +28°C° 0 mm 1 mps 746 mmHg 82%
    09:00 +29°C° 0 mm 1 mps 746 mmHg 77%
    10:00 +31°C° 0 mm 1 mps 746 mmHg 69%
    11:00 +33°C° 0 mm 1 mps 746 mmHg 62%
    12:00 +34°C° 0 mm 1 mps 746 mmHg 55%
    13:00 +34°C° 0.6 mm 1 mps 745 mmHg 55%
    14:00 +34°C° 0.6 mm 1 mps 744 mmHg 56%
    15:00 +35°C° 0.6 mm 2 mps 743 mmHg 57%
    16:00 +33°C° 1.2 mm 1 mps 743 mmHg 64%
    17:00 +31°C° 1.2 mm 1 mps 743 mmHg 71%
    18:00 +30°C° 1.2 mm 1 mps 743 mmHg 79%
    19:00 +29°C° 0 mm 1 mps 744 mmHg 82%
    20:00 +28°C° 0 mm 1 mps 744 mmHg 85%
    21:00 +27°C° 0 mm 1 mps 745 mmHg 88%
    22:00 +27°C° 0 mm 2 mps 745 mmHg 89%
    23:00 +27°C° 0 mm 2 mps 745 mmHg 90%

    23 February, Saturday

    Time Temperature Precipitation Wind Pressure Humidity
    00:00 +27°C° 0 mm 2 mps 745 mmHg 91%
    01:00 +26°C° 0 mm 2 mps 744 mmHg 92%
    02:00 +26°C° 0 mm 1 mps 744 mmHg 94%
    03:00 +26°C° 0 mm 1 mps 743 mmHg 95%
    04:00 +26°C° 0 mm 1 mps 743 mmHg 94%
    05:00 +26°C° 0 mm 1 mps 744 mmHg 94%
    06:00 +26°C° 0 mm 1 mps 744 mmHg 93%
    07:00 +27°C° 0.1 mm 1 mps 745 mmHg 91%
    08:00 +27°C° 0.1 mm 1 mps 745 mmHg 88%
    09:00 +28°C° 0.1 mm 1 mps 746 mmHg 85%
    10:00 +30°C° 0.1 mm 1 mps 746 mmHg 76%
    11:00 +31°C° 0.1 mm 1 mps 745 mmHg 67%
    12:00 +34°C° 0.1 mm 2 mps 745 mmHg 58%
    13:00 +34°C° 0 mm 1 mps 744 mmHg 54%
    14:00 +35°C° 0 mm 1 mps 743 mmHg 50%
    15:00 +36°C° 0 mm 1 mps 742 mmHg 46%
    16:00 +34°C° 0.1 mm 1 mps 742 mmHg 53%
    17:00 +33°C° 0.1 mm 1 mps 742 mmHg 60%
    18:00 +31°C° 0.1 mm 2 mps 742 mmHg 66%
    19:00 +30°C° 0 mm 2 mps 743 mmHg 73%
    20:00 +29°C° 0 mm 2 mps 743 mmHg 79%
    21:00 +28°C° 0 mm 2 mps 744 mmHg 85%
    22:00 +27°C° 0 mm 2 mps 743 mmHg 87%
    23:00 +27°C° 0 mm 2 mps 743 mmHg 88%

    24 February, Sunday

    Time Temperature Precipitation Wind Pressure Humidity
    00:00 +27°C° 0 mm 2 mps 743 mmHg 89%
    01:00 +26°C° 0 mm 2 mps 743 mmHg 91%
    02:00 +26°C° 0 mm 1 mps 742 mmHg 93%
    03:00 +26°C° 0 mm 1 mps 742 mmHg 94%
    04:00 +26°C° 0 mm 1 mps 742 mmHg 94%
    05:00 +26°C° 0 mm 1 mps 742 mmHg 94%
    06:00 +26°C° 0 mm 1 mps 742 mmHg 94%
    07:00 +26°C° 0.1 mm 1 mps 743 mmHg 90%
    08:00 +27°C° 0.1 mm 2 mps 744 mmHg 86%
    09:00 +28°C° 0.1 mm 2 mps 745 mmHg 83%
    10:00 +30°C° 0.1 mm 2 mps 744 mmHg 72%
    11:00 +32°C° 0.1 mm 2 mps 744 mmHg 62%
    12:00 +35°C° 0.1 mm 1 mps 744 mmHg 51%
    13:00 +35°C° 0 mm 1 mps 743 mmHg 50%
    14:00 +35°C° 0 mm 1 mps 742 mmHg 48%
    15:00 +35°C° 0 mm 1 mps 741 mmHg 47%
    16:00 +34°C° 0.1 mm 1 mps 741 mmHg 54%
    17:00 +32°C° 0.1 mm 2 mps 742 mmHg 60%
    18:00 +31°C° 0.1 mm 2 mps 742 mmHg 67%
    19:00 +30°C° 0 mm 2 mps 742 mmHg 73%
    20:00 +29°C° 0 mm 2 mps 743 mmHg 78%
    21:00 +27°C° 0 mm 1 mps 743 mmHg 84%
    22:00 +27°C° 0.1 mm 1 mps 743 mmHg 87%
    23:00 +27°C° 0.1 mm 1 mps 743 mmHg 89%

    25 February, Monday

    Time Temperature Precipitation Wind Pressure Humidity
    00:00 +26°C° 0.1 mm 1 mps 743 mmHg 92%
    01:00 +26°C° 0 mm 1 mps 742 mmHg 92%
    02:00 +26°C° 0 mm 1 mps 742 mmHg 93%
    03:00 +26°C° 0 mm 1 mps 741 mmHg 93%
    04:00 +25°C° 0 mm 1 mps 742 mmHg 94%
    05:00 +25°C° 0 mm 1 mps 742 mmHg 95%
    06:00 +25°C° 0 mm 1 mps 742 mmHg 96%
    07:00 +26°C° 0 mm 1 mps 743 mmHg 87%
    08:00 +28°C° 0 mm 2 mps 743 mmHg 79%
    09:00 +30°C° 0 mm 2 mps 744 mmHg 70%
    10:00 +32°C° 0 mm 2 mps 744 mmHg 62%
    11:00 +35°C° 0 mm 2 mps 743 mmHg 53%
    12:00 +37°C° 0 mm 2 mps 743 mmHg 45%
    13:00 +36°C° 0.1 mm 1 mps 742 mmHg 45%
    14:00 +36°C° 0.1 mm 1 mps 741 mmHg 45%
    15:00 +35°C° 0.1 mm 1 mps 741 mmHg 45%
    16:00 +34°C° 0.1 mm 1 mps 741 mmHg 48%
    17:00 +34°C° 0.1 mm 1 mps 741 mmHg 52%
    18:00 +33°C° 0.1 mm 1 mps 742 mmHg 56%
    19:00 +31°C° 0.3 mm 1 mps 742 mmHg 67%
    20:00 +29°C° 0.3 mm 2 mps 743 mmHg 77%
    21:00 +28°C° 0.3 mm 2 mps 743 mmHg 88%
    22:00 +27°C° 0 mm 2 mps 743 mmHg 88%
    23:00 +27°C° 0 mm 2 mps 743 mmHg 89%
    Show more